W9IF-4 Weather Reports


Display with metric or nautical units.
time (UTC)temp
F
wind
direction
speed
MPH
gust
MPH
rain 1hr
in
rain 24hr
in
rain mn
in
humidity
%
barometer
mb
20141219012837 59 242 0.0 0.0 0.00 0.00 0.00 1024.9
20141219012737 59 242 0.0 0.0 0.00 0.00 0.00 1024.9
20141219012637 59 242 0.0 0.0 0.00 0.00 0.00 1024.9
20141219012538 59 242 0.0 0.0 0.00 0.00 0.00 1024.9
20141219012437 59 242 0.0 0.0 0.00 0.00 0.00 1024.8
20141219012337 59 257 5.0 0.0 0.00 0.00 0.00 1024.8
20141219012238 59 245 0.0 0.0 0.00 0.00 0.00 1024.8
20141219012137 59 274 0.0 0.0 0.00 0.00 0.00 1024.8
20141219012037 59 274 0.0 0.0 0.00 0.00 0.00 1024.8
20141219011937 59 274 3.0 0.0 0.00 0.00 0.00 1024.8
20141219011838 59 236 4.0 0.0 0.00 0.00 0.00 1024.8
20141219011737 59 243 6.0 0.0 0.00 0.00 0.00 1024.8
20141219011637 59 255 6.0 0.0 0.00 0.00 0.00 1024.8
20141219011437 59 239 5.0 0.0 0.00 0.00 0.00 1024.8
20141219011337 59 221 0.0 0.0 0.00 0.00 0.00 1024.9
20141219011237 59 249 0.0 0.0 0.00 0.00 0.00 1024.8
20141219011138 59 249 0.0 0.0 0.00 0.00 0.00 1024.8
20141219010937 59 288 0.0 0.0 0.00 0.00 0.00 1024.8
20141219010837 59 288 0.0 0.0 0.00 0.00 0.00 1024.8
20141219010737 59 277 3.0 0.0 0.00 0.00 0.00 1024.8
20141219010637 59 294 6.0 0.0 0.00 0.00 0.00 1024.8
20141219010537 59 293 7.0 0.0 0.00 0.00 0.00 1024.7
20141219010437 59 249 3.0 0.0 0.00 0.00 0.00 1024.7
20141219010337 59 284 0.0 0.0 0.00 0.00 0.00 1024.7
20141219010237 59 270 5.0 0.0 0.00 0.00 0.00 1024.7
20141219010137 59 293 5.0 0.0 0.00 0.00 0.00 1024.7
20141219010037 59 252 0.0 0.0 0.00 0.00 0.00 1024.7
20141219005937 59 252 0.0 0.0 0.00 0.00 0.00 1024.7
20141219005837 59 278 5.0 0.0 0.00 0.00 0.00 1024.7
20141219005637 60 262 6.0 0.0 0.00 0.00 0.00 1024.7
20141219005437 59 267 4.0 0.0 0.00 0.00 0.00 1024.7
20141219005337 59 295 6.0 0.0 0.00 0.00 0.00 1024.6
20141219005238 59 269 5.0 0.0 0.00 0.00 0.00 1024.7
20141219005137 59 259 3.0 0.0 0.00 0.00 0.00 1024.6
20141219005037 59 295 6.0 0.0 0.00 0.00 0.00 1024.6
20141219004837 59 262 6.0 0.0 0.00 0.00 0.00 1024.6
20141219004737 60 263 5.0 0.0 0.00 0.00 0.00 1024.6
20141219004637 59 264 6.0 0.0 0.00 0.00 0.00 1024.5
20141219004537 60 253 8.0 0.0 0.00 0.00 0.00 1024.5
20141219004437 59 270 5.0 0.0 0.00 0.00 0.00 1024.5
20141219004237 60 250 0.0 0.0 0.00 0.00 0.00 1024.5
20141219004137 60 250 0.0 0.0 0.00 0.00 0.00 1024.5
20141219004037 59 262 5.0 0.0 0.00 0.00 0.00 1024.5
20141219003937 59 255 6.0 0.0 0.00 0.00 0.00 1024.5
20141219003837 60 256 7.0 0.0 0.00 0.00 0.00 1024.5
20141219003737 60 243 0.0 0.0 0.00 0.00 0.00 1024.4
20141219003637 60 243 0.0 0.0 0.00 0.00 0.00 1024.4
20141219003537 60 243 0.0 0.0 0.00 0.00 0.00 1024.4
20141219003437 60 243 0.0 0.0 0.00 0.00 0.00 1024.4
20141219003337 59 243 0.0 0.0 0.00 0.00 0.00 1024.5
20141219003237 60 243 0.0 0.0 0.00 0.00 0.00 1024.4
20141219003137 59 243 0.0 0.0 0.00 0.00 0.00 1024.5
20141219003037 59 243 0.0 0.0 0.00 0.00 0.00 1024.4
20141219002937 59 242 0.0 0.0 0.00 0.00 0.00 1024.4
20141219002637 59 242 4.0 0.0 0.00 0.00 0.00 1024.4
20141219002437 60 263 6.0 0.0 0.00 0.00 0.00 1024.4
20141219002337 59 255 5.0 0.0 0.00 0.00 0.00 1024.3
20141219002237 60 240 0.0 0.0 0.00 0.00 0.00 1024.3
20141219002137 60 240 0.0 0.0 0.00 0.00 0.00 1024.4
20141219002037 60 240 0.0 0.0 0.00 0.00 0.00 1024.4
20141219001937 60 250 0.0 0.0 0.00 0.00 0.00 1024.4
20141219001837 59 250 0.0 0.0 0.00 0.00 0.00 1024.3
20141219001737 60 250 0.0 0.0 0.00 0.00 0.00 1024.3
20141219001637 60 242 0.0 0.0 0.00 0.00 0.00 1024.3
20141219001537 60 243 6.0 0.0 0.00 0.00 0.00 1024.4
20141219001337 60 252 4.0 0.0 0.00 0.00 0.00 1024.3
20141219001137 60 245 7.0 0.0 0.00 0.00 0.00 1024.3
20141219001037 61 242 0.0 0.0 0.00 0.00 0.00 1024.3
20141219000937 60 242 0.0 0.0 0.00 0.00 0.00 1024.3
20141219000837 60 242 0.0 0.0 0.00 0.00 0.00 1024.3
20141219000637 60 263 5.0 0.0 0.00 0.00 0.00 1024.3
20141219000541 60 270 4.0 0.0 0.00 0.00 0.00 1024.3
20141219000437 60 274 5.0 0.0 0.00 0.00 0.00 1024.3
20141219000337 61 264 0.0 0.0 0.00 0.00 0.00 1024.3
20141219000237 61 294 7.0 0.0 0.00 0.00 0.00 1024.3
20141219000137 61 256 7.0 0.0 0.00 0.00 0.00 1024.3
20141219000037 61 264 3.0 0.0 0.00 0.00 0.00 1024.3
20141218235937 61 226 0.0 0.0 0.00 0.00 0.00 1024.3
20141218235837 61 255 0.0 0.0 0.00 0.00 0.00 1024.3
20141218235737 61 235 5.0 0.0 0.00 0.00 0.00 1024.3
20141218235637 62 321 0.0 0.0 0.00 0.00 0.00 1024.3
20141218235537 62 321 0.0 0.0 0.00 0.00 0.00 1024.3
20141218235437 61 321 0.0 0.0 0.00 0.00 0.00 1024.3
20141218235337 61 248 4.0 0.0 0.00 0.00 0.00 1024.3
20141218235239 62 252 3.0 0.0 0.00 0.00 0.00 1024.3
20141218235137 62 285 0.0 0.0 0.00 0.00 0.00 1024.3
20141218235037 61 255 6.0 0.0 0.00 0.00 0.00 1024.3
20141218234937 61 243 7.0 0.0 0.00 0.00 0.00 1024.3
20141218234837 62 252 8.0 0.0 0.00 0.00 0.00 1024.3
20141218234537 61 250 8.0 0.0 0.00 0.00 0.00 1024.3
20141218234437 61 260 7.0 0.0 0.00 0.00 0.00 1024.3
20141218234337 61 280 0.0 0.0 0.00 0.00 0.00 1024.3
20141218234237 61 280 0.0 0.0 0.00 0.00 0.00 1024.3
20141218234137 62 249 7.0 0.0 0.00 0.00 0.00 1024.3
20141218234037 62 238 6.0 0.0 0.00 0.00 0.00 1024.3
20141218233937 62 242 8.0 0.0 0.00 0.00 0.00 1024.3
20141218233837 62 263 8.0 0.0 0.00 0.00 0.00 1024.3
20141218233737 62 243 0.0 0.0 0.00 0.00 0.00 1024.3
20141218233637 62 243 0.0 0.0 0.00 0.00 0.00 1024.3
20141218233537 62 271 6.0 0.0 0.00 0.00 0.00 1024.3
20141218233437 62 264 7.0 0.0 0.00 0.00 0.00 1024.3
20141218233337 62 264 7.0 0.0 0.00 0.00 0.00 1024.3
20141218233237 62 249 7.0 0.0 0.00 0.00 0.00 1024.3
20141218233137 62 260 6.0 0.0 0.00 0.00 0.00 1024.3
20141218233038 62 214 5.0 0.0 0.00 0.00 0.00 1024.3
20141218232937 63 221 0.0 0.0 0.00 0.00 0.00 1024.3
20141218232837 62 218 0.0 0.0 0.00 0.00 0.00 1024.3
20141218232637 62 263 7.0 0.0 0.00 0.00 0.00 1024.3
20141218232537 62 248 7.0 0.0 0.00 0.00 0.00 1024.3
20141218232437 63 253 9.0 0.0 0.00 0.00 0.00 1024.3
20141218232238 63 219 7.0 0.0 0.00 0.00 0.00 1024.3
20141218232037 63 246 0.0 0.0 0.00 0.00 0.00 1024.3
20141218231937 64 246 0.0 0.0 0.00 0.00 0.00 1024.3
20141218231837 64 246 0.0 0.0 0.00 0.00 0.00 1024.3
20141218231737 64 246 0.0 0.0 0.00 0.00 0.00 1024.3
20141218231637 64 246 0.0 0.0 0.00 0.00 0.00 1024.3
20141218231537 64 246 0.0 0.0 0.00 0.00 0.00 1024.2
20141218231437 64 246 0.0 0.0 0.00 0.00 0.00 1024.3
20141218231337 64 246 0.0 0.0 0.00 0.00 0.00 1024.2
20141218231237 63 246 0.0 0.0 0.00 0.00 0.00 1024.2
20141218231137 63 246 0.0 0.0 0.00 0.00 0.00 1024.2
20141218231037 63 246 0.0 0.0 0.00 0.00 0.00 1024.2
20141218230937 63 246 0.0 0.0 0.00 0.00 0.00 1024.2
20141218230837 62 245 4.0 0.0 0.00 0.00 0.00 1024.2
20141218230737 63 280 0.0 0.0 0.00 0.00 0.00 1024.2
20141218230637 63 239 0.0 0.0 0.00 0.00 0.00 1024.2
20141218230537 62 253 7.0 0.0 0.00 0.00 0.00 1024.2
20141218230437 63 259 7.0 0.0 0.00 0.00 0.00 1024.2
20141218230337 63 260 6.0 0.0 0.00 0.00 0.00 1024.1
20141218230237 63 260 0.0 0.0 0.00 0.00 0.00 1024.1
20141218230037 62 269 6.0 0.0 0.00 0.00 0.00 1024.1
20141218225937 63 257 7.0 0.0 0.00 0.00 0.00 1024.1
20141218225837 63 270 5.0 0.0 0.00 0.00 0.00 1024.1
20141218225637 63 260 5.0 0.0 0.00 0.00 0.00 1024.1
20141218225537 63 257 0.0 0.0 0.00 0.00 0.00 1024.1
20141218225438 64 257 0.0 0.0 0.00 0.00 0.00 1024.1
20141218225337 64 274 0.0 0.0 0.00 0.00 0.00 1024.1
20141218225237 64 252 0.0 0.0 0.00 0.00 0.00 1024.1
20141218225137 64 232 0.0 0.0 0.00 0.00 0.00 1024.1
20141218225037 65 260 0.0 0.0 0.00 0.00 0.00 1024.1
20141218224937 65 260 0.0 0.0 0.00 0.00 0.00 1024.1
20141218224837 66 260 0.0 0.0 0.00 0.00 0.00 1024.1
20141218224738 66 260 0.0 0.0 0.00 0.00 0.00 1024.1
20141218224637 66 260 0.0 0.0 0.00 0.00 0.00 1024.1
20141218224537 66 260 0.0 0.0 0.00 0.00 0.00 1024.1
20141218224437 66 236 3.0 0.0 0.00 0.00 0.00 1024.1
20141218224337 66 277 5.0 0.0 0.00 0.00 0.00 1024.1
20141218224237 66 239 0.0 0.0 0.00 0.00 0.00 1024.0
20141218224137 65 259 6.0 0.0 0.00 0.00 0.00 1024.0
20141218224037 66 257 7.0 0.0 0.00 0.00 0.00 1024.0
20141218223937 66 249 7.0 0.0 0.00 0.00 0.00 1024.0
20141218223837 66 283 0.0 0.0 0.00 0.00 0.00 1024.0
20141218223737 66 285 5.0 0.0 0.00 0.00 0.00 1024.0
20141218223637 66 259 4.0 0.0 0.00 0.00 0.00 1024.0
20141218223537 66 294 4.0 0.0 0.00 0.00 0.00 1024.0
20141218223337 67 280 0.0 0.0 0.00 0.00 0.00 1024.0
20141218223237 68 297 0.0 0.0 0.00 0.00 0.00 1024.0
20141218223137 68 253 7.0 0.0 0.00 0.00 0.00 1024.0
20141218223037 67 246 5.0 0.0 0.00 0.00 0.00 1023.9
20141218222937 66 249 6.0 0.0 0.00 0.00 0.00 1023.9
20141218222837 66 238 0.0 0.0 0.00 0.00 0.00 1024.0
20141218222737 66 238 0.0 0.0 0.00 0.00 0.00 1024.0
20141218222637 66 238 4.0 0.0 0.00 0.00 0.00 1024.0
20141218222337 67 253 0.0 0.0 0.00 0.00 0.00 1023.9
20141218222237 66 245 6.0 0.0 0.00 0.00 0.00 1024.0
20141218222137 67 256 0.0 0.0 0.00 0.00 0.00 1024.0
20141218222037 66 256 0.0 0.0 0.00 0.00 0.00 1024.0
20141218221938 68 256 0.0 0.0 0.00 0.00 0.00 1024.0
20141218221837 67 256 0.0 0.0 0.00 0.00 0.00 1024.0
20141218221537 66 243 0.0 0.0 0.00 0.00 0.00 1024.0
20141218221437 66 243 0.0 0.0 0.00 0.00 0.00 1024.0
20141218221337 66 239 4.0 0.0 0.00 0.00 0.00 1024.1
20141218221137 67 249 6.0 0.0 0.00 0.00 0.00 1024.1
20141218221036 67 267 5.0 0.0 0.00 0.00 0.00 1024.1
20141218220937 68 263 0.0 0.0 0.00 0.00 0.00 1024.1
20141218220837 67 263 0.0 0.0 0.00 0.00 0.00 1024.1
20141218220737 68 263 0.0 0.0 0.00 0.00 0.00 1024.1
20141218220637 68 263 0.0 0.0 0.00 0.00 0.00 1024.1
20141218220537 68 263 0.0 0.0 0.00 0.00 0.00 1024.0
20141218220437 68 263 0.0 0.0 0.00 0.00 0.00 1024.1
20141218220337 67 263 4.0 0.0 0.00 0.00 0.00 1024.1
20141218220236 67 266 5.0 0.0 0.00 0.00 0.00 1024.0
20141218220137 67 259 7.0 0.0 0.00 0.00 0.00 1024.1
20141218220036 66 262 6.0 0.0 0.00 0.00 0.00 1024.0
20141218215937 66 243 0.0 0.0 0.00 0.00 0.00 1024.0
20141218215836 67 253 7.0 0.0 0.00 0.00 0.00 1024.0
20141218215736 67 243 6.0 0.0 0.00 0.00 0.00 1024.1
20141218215636 67 252 3.0 0.0 0.00 0.00 0.00 1024.1
20141218215537 67 259 7.0 0.0 0.00 0.00 0.00 1024.0
20141218215437 66 257 4.0 0.0 0.00 0.00 0.00 1024.1
20141218215337 67 222 0.0 0.0 0.00 0.00 0.00 1024.1
20141218215237 67 222 0.0 0.0 0.00 0.00 0.00 1024.0
20141218215137 67 222 0.0 0.0 0.00 0.00 0.00 1024.0
20141218215037 67 222 0.0 0.0 0.00 0.00 0.00 1024.0
20141218214937 67 222 0.0 0.0 0.00 0.00 0.00 1024.0
20141218214837 66 222 0.0 0.0 0.00 0.00 0.00 1024.0
20141218214737 66 222 0.0 0.0 0.00 0.00 0.00 1024.1
20141218214637 67 222 0.0 0.0 0.00 0.00 0.00 1024.0
20141218214536 67 252 0.0 0.0 0.00 0.00 0.00 1024.1
20141218214437 69 252 7.0 0.0 0.00 0.00 0.00 1024.0
20141218214237 68 224 0.0 0.0 0.00 0.00 0.00 1024.1
20141218214137 68 224 0.0 0.0 0.00 0.00 0.00 1024.1
20141218214037 67 224 0.0 0.0 0.00 0.00 0.00 1024.1
20141218213837 69 246 5.0 0.0 0.00 0.00 0.00 1024.0
20141218213738 68 245 5.0 0.0 0.00 0.00 0.00 1024.0
20141218213636 67 222 6.0 0.0 0.00 0.00 0.00 1024.0
20141218213537 68 253 0.0 0.0 0.00 0.00 0.00 1024.1
20141218213437 67 253 0.0 0.0 0.00 0.00 0.00 1024.0
20141218213336 67 253 0.0 0.0 0.00 0.00 0.00 1024.0
20141218213237 68 280 3.0 0.0 0.00 0.00 0.00 1024.0
20141218213137 69 239 4.0 0.0 0.00 0.00 0.00 1024.0
20141218213037 69 210 5.0 0.0 0.00 0.00 0.00 1024.0
20141218212937 68 260 0.0 0.0 0.00 0.00 0.00 1024.0